Location: Unspecified
(0.0000°N, 0.0000°E)
Time: 15:52:47
(UTC+00:00)

Vanguard 1 - Pass Details

Date: 17 December 2017
Orbit: 650 x 3833 km, 34.2° (Epoch: 22 July)

Event Time Altitude Azimuth Distance (km) Brightness Sun altitude
Rises 02:38:46 0° 217° (SW) 5,390 13.8 -44.1°
Reaches altitude 10° 02:42:04 10° 209° (SSW) 4,765 13.5 -43.4°
Maximum altitude 02:56:06 44° 140° (SE) 3,944 13.2 -40.5°
Drops below altitude 10° 03:16:55 10° 75° (ENE) 6,926 14.8 -36.0°
Sets 03:22:55 0° 70° (ENE) 7,950 15.2 -34.7°
